COSMOS 2584 (704K)

Last updated on Mon Sep 07 2026 00:03:21 GMT+0000 (Coordinated Universal Time)

1 63130U 25042A 26248.85252685 .00000038 00000+0 00000+0 0 9998 2 63130 65.1355 70.0620 0006303 202.9562 157.0685 2.13103444 11762
UTC large
Height (km)
Speed (km/s)
/
Latitude / Longitude
Inclination (degrees)
Orbital Period (minutes)
Azimuth
Elevation
Range (km)
Doppler Factor

Next 0 passes for location: London (51.5072 / 0.1276)

No passes found over London.
COSMOS 2584 (704K)